Location: Ferintosh
(52.7647°N, 112.9692°W)
Time: 17:31:50
(UTC+00:00)

A-11 Canister half - Pass Details

Date: 23 May 2024
Orbit: 1515 x 1685 km, 47.2° (Epoch: 12 June)

Event Time Altitude Azimuth Distance (km) Brightness Sun altitude
Rises 12:42:46 0° 266° (W) 4,721 10.9 9.7°
Reaches altitude 10° 12:45:53 10° 263° (W) 3,720 10.5 10.2°
Maximum altitude 12:55:02 62° 186° (S) 1,677 9.3 11.5°
Drops below altitude 10° 13:04:04 10° 109° (ESE) 3,675 12.0 12.8°
Sets 13:07:08 0° 106° (ESE) 4,662 12.6 13.2°
